Tinley Park, Illinois, United States (60477)
Lat: 41.57N, Lon: 87.78W
Wx Zone: ILZ014
Local Info
Past Weather Observations for Today

NOTE: This archive is for the closest National Weather Service station to Tinley Park. Information may differ from the station used for current weather conditions.

Click here for Long-term Archive

Time Weather Temperature Dewpoint Humidity Pressure Winds Precip Visibility
22:15
Overcast
52°F / 11°C 46°F / 8°C 82% 29.89 in
(1012 mb)
SW 15 mph
(SW 24 kph)
- 10SM
21:55
Overcast
52°F / 11°C 46°F / 8°C 82% 29.92 in
(1013 mb)
SW 16.1 mph
(SW 26 kph)
- 10SM
21:35
Mostly Cloudy
52°F / 11°C 46°F / 8°C 82% 29.92 in
(1013 mb)
SW 15 mph
(SW 24 kph)
- 10SM
21:15
Mostly Cloudy
52°F / 11°C 46°F / 8°C 82% 29.89 in
(1012 mb)
SW 17.3 mph
(SW 28 kph)
- 10SM
20:55
Overcast
52°F / 11°C 46°F / 8°C 82% 29.92 in
(1013 mb)
SW 18.4 mph
(SW 30 kph)
- 10SM
20:35
Overcast
52°F / 11°C 46°F / 8°C 82% 29.89 in
(1012 mb)
SW 16.1 mph
(SW 26 kph)
- 10SM
20:15
Overcast
50°F / 10°C 46°F / 8°C 88% 29.89 in
(1012 mb)
SSE 16.1 mph
(SSE 26 kph)
- 10SM
19:55
Overcast
50°F / 10°C 45°F / 7°C 82% 29.92 in
(1013 mb)
SSE 12.7 mph
(SSE 20 kph)
- 10SM
19:35
Overcast
50°F / 10°C 45°F / 7°C 82% 29.92 in
(1013 mb)
SW 12.7 mph
(SW 20 kph)
- 10SM
19:15
Overcast
50°F / 10°C 45°F / 7°C 82% 29.92 in
(1013 mb)
SSE 11.5 mph
(SSE 19 kph)
- 10SM
18:55
Overcast
50°F / 10°C 45°F / 7°C 82% 29.92 in
(1013 mb)
SSE 11.5 mph
(SSE 19 kph)
- 10SM
18:35
Overcast
50°F / 10°C 45°F / 7°C 82% 29.92 in
(1013 mb)
SW 12.7 mph
(SW 20 kph)
- 10SM
18:15
Overcast
50°F / 10°C 45°F / 7°C 82% 29.92 in
(1013 mb)
SSE 11.5 mph
(SSE 19 kph)
- 10SM
17:55
Overcast
50°F / 10°C 45°F / 7°C 82% 29.92 in
(1013 mb)
SSE 11.5 mph
(SSE 19 kph)
- 10SM
17:35
Overcast
50°F / 10°C 45°F / 7°C 82% 29.92 in
(1013 mb)
SW 11.5 mph
(SW 19 kph)
- 10SM
17:15
Mostly Cloudy
50°F / 10°C 45°F / 7°C 82% 29.92 in
(1013 mb)
SW 12.7 mph
(SW 20 kph)
- 10SM
16:55
Overcast
52°F / 11°C 46°F / 8°C 82% 29.92 in
(1013 mb)
SW 13.8 mph
(SW 22 kph)
- 10SM
16:35
Overcast
52°F / 11°C 46°F / 8°C 82% 29.92 in
(1013 mb)
SW 12.7 mph
(SW 20 kph)
- 10SM
16:15
Overcast
50°F / 10°C 46°F / 8°C 88% 29.89 in
(1012 mb)
SW 12.7 mph
(SW 20 kph)
- 10SM
15:55
Overcast
50°F / 10°C 46°F / 8°C 88% 29.89 in
(1012 mb)
SSE 12.7 mph
(SSE 20 kph)
- 10SM
15:35
Overcast
50°F / 10°C 46°F / 8°C 88% 29.92 in
(1013 mb)
SW 11.5 mph
(SW 19 kph)
- 10SM
15:15
Overcast
48°F / 9°C 46°F / 8°C 94% 29.92 in
(1013 mb)
SW 9.2 mph
(SW 15 kph)
- 10SM
14:55
Overcast
48°F / 9°C 45°F / 7°C 87% 29.92 in
(1013 mb)
SW 6.9 mph
(SW 11 kph)
- 10SM
14:35
Overcast
48°F / 9°C 45°F / 7°C 87% 29.92 in
(1013 mb)
SSE 8.1 mph
(SSE 13 kph)
- 10SM
14:15
Overcast
48°F / 9°C 45°F / 7°C 87% 29.92 in
(1013 mb)
SW 9.2 mph
(SW 15 kph)
- 10SM
13:55
Overcast
46°F / 8°C 45°F / 7°C 93% 29.92 in
(1013 mb)
SW 8.1 mph
(SW 13 kph)
- 10SM
13:35
Overcast
46°F / 8°C 43°F / 6°C 87% 29.95 in
(1014 mb)
SSW 10.4 mph
(SSW 17 kph)
- 10SM
13:15
Overcast
46°F / 8°C 43°F / 6°C 87% 29.95 in
(1014 mb)
W 8.1 mph
(W 13 kph)
- 10SM
12:55
Overcast
45°F / 7°C 43°F / 6°C 93% 29.95 in
(1014 mb)
SW 10.4 mph
(SW 17 kph)
- 10SM
12:35
Overcast
45°F / 7°C 41°F / 5°C 87% 29.95 in
(1014 mb)
SW 10.4 mph
(SW 17 kph)
- 10SM
12:15
Overcast
45°F / 7°C 41°F / 5°C 87% 29.98 in
(1015 mb)
SW 11.5 mph
(SW 19 kph)
- 10SM
11:55
Overcast
45°F / 7°C 41°F / 5°C 87% 29.98 in
(1015 mb)
SW 11.5 mph
(SW 19 kph)
- 10SM
11:35
Overcast
43°F / 6°C 41°F / 5°C 93% 29.98 in
(1015 mb)
SSW 9.2 mph
(SSW 15 kph)
- 10SM
11:15
Overcast
43°F / 6°C 39°F / 4°C 87% 30.01 in
(1016 mb)
SW 9.2 mph
(SW 15 kph)
- 10SM
10:55
Overcast
41°F / 5°C 39°F / 4°C 93% 30.01 in
(1016 mb)
SSE 9.2 mph
(SSE 15 kph)
- 10SM
10:35
Overcast
41°F / 5°C 39°F / 4°C 93% 30.01 in
(1016 mb)
SW 9.2 mph
(SW 15 kph)
- 10SM
10:15
Overcast
Drizzle
41°F / 5°C 37°F / 3°C 87% 30.04 in
(1017 mb)
SW 10.4 mph
(SW 17 kph)
- 7SM
09:55
Overcast
39°F / 4°C 37°F / 3°C 93% 30.04 in
(1017 mb)
SW 9.2 mph
(SW 15 kph)
- 7SM
09:35
Overcast
39°F / 4°C 36°F / 2°C 87% 30.04 in
(1017 mb)
SSE 10.4 mph
(SSE 17 kph)
- 10SM
09:15
Overcast
39°F / 4°C 36°F / 2°C 87% 30.04 in
(1017 mb)
SSE 10.4 mph
(SSE 17 kph)
- 10SM
08:55
Overcast
39°F / 4°C 36°F / 2°C 87% 30.04 in
(1017 mb)
SSE 11.5 mph
(SSE 19 kph)
- 10SM
08:35
Overcast
37°F / 3°C 36°F / 2°C 93% 30.06 in
(1018 mb)
SW 11.5 mph
(SW 19 kph)
- 7SM
08:15
Overcast
37°F / 3°C 36°F / 2°C 93% 30.06 in
(1018 mb)
SSE 10.4 mph
(SSE 17 kph)
- 7SM
07:55
Overcast
37°F / 3°C 34°F / 1°C 87% 30.06 in
(1018 mb)
SSE 10.4 mph
(SSE 17 kph)
- 7SM
07:35
Overcast
Fog And Mist
36°F / 2°C 34°F / 1°C 93% 30.06 in
(1018 mb)
SSE 10.4 mph
(SSE 17 kph)
- 5SM
07:15
Overcast
Rain
36°F / 2°C 34°F / 1°C 93% 30.06 in
(1018 mb)
SW 6.9 mph
(SW 11 kph)
- 5SM
06:55
Overcast
36°F / 2°C 34°F / 1°C 93% 30.09 in
(1019 mb)
SW 9.2 mph
(SW 15 kph)
- 7SM
06:35
Overcast
Fog And Mist
36°F / 2°C 34°F / 1°C 93% 30.09 in
(1019 mb)
SW 8.1 mph
(SW 13 kph)
- 5SM
06:15
Overcast
36°F / 2°C 32°F / 0°C 87% 30.09 in
(1019 mb)
SSE 11.5 mph
(SSE 19 kph)
- 7SM
05:55
Overcast
34°F / 1°C 32°F / 0°C 93% 30.09 in
(1019 mb)
SSE 9.2 mph
(SSE 15 kph)
0.04 in
(1.02 mm)
7SM
05:35
Overcast
Light Rain
34°F / 1°C 32°F / 0°C 93% 30.09 in
(1019 mb)
SSE 10.4 mph
(SSE 17 kph)
0.04 in
(1.02 mm)
4SM
05:15
Overcast
Light Rain
34°F / 1°C 32°F / 0°C 93% 30.09 in
(1019 mb)
SW 9.2 mph
(SW 15 kph)
0.01 in
(0.25 mm)
3SM
04:55
Overcast
Drizzle
34°F / 1°C 32°F / 0°C 93% 30.09 in
(1019 mb)
SW 11.5 mph
(SW 19 kph)
- 2 1/2SM
04:35
Overcast
Fog And Mist
34°F / 1°C 32°F / 0°C 93% 30.12 in
(1020 mb)
SSE 9.2 mph
(SSE 15 kph)
- 5SM
04:15
Overcast
Fog And Mist
34°F / 1°C 32°F / 0°C 93% 30.12 in
(1020 mb)
SSE 11.5 mph
(SSE 19 kph)
- 5SM
03:55
Overcast
Drizzle
34°F / 1°C 32°F / 0°C 93% 30.12 in
(1020 mb)
SSE 12.7 mph
(SSE 20 kph)
0.06 in
(1.52 mm)
2 1/2SM
03:35
Overcast
Light Snow
32°F / 0°C 32°F / 0°C 100% 30.12 in
(1020 mb)
SSE 12.7 mph
(SSE 20 kph)
0.06 in
(1.52 mm)
1 3/4SM
03:15
Overcast
Unknown Precip
34°F / 1°C 32°F / 0°C 93% 30.12 in
(1020 mb)
SW 13.8 mph
(SW 22 kph)
0.01 in
(0.25 mm)
3SM
02:55
Overcast
32°F / 0°C 30°F / -1°C 93% 30.15 in
(1021 mb)
SSE 10.4 mph
(SSE 17 kph)
0.01 in
(0.25 mm)
7SM
02:35
Overcast
32°F / 0°C 30°F / -1°C 93% 30.15 in
(1021 mb)
SW 15 mph
(SW 24 kph)
0.01 in
(0.25 mm)
10SM
02:15
Overcast
Light Rain
32°F / 0°C 28°F / -2°C 87% 30.15 in
(1021 mb)
SSE 11.5 mph
(SSE 19 kph)
0.01 in
(0.25 mm)
10SM
01:55
Overcast
Light Snow
32°F / 0°C 27°F / -3°C 80% 30.15 in
(1021 mb)
SSE 13.8 mph
(SSE 22 kph)
0.05 in
(1.27 mm)
4SM
01:35
Overcast
Rain
34°F / 1°C 25°F / -4°C 70% 30.15 in
(1021 mb)
SSE 12.7 mph
(SSE 20 kph)
0.01 in
(0.25 mm)
5SM
01:15
Overcast
36°F / 2°C 18°F / -8°C 48% 30.15 in
(1021 mb)
S 11.5 mph
(S 19 kph)
- 10SM
00:55
Overcast
36°F / 2°C 16°F / -9°C 44% 30.18 in
(1022 mb)
S 15 mph
(S 24 kph)
- 10SM
00:35
Overcast
36°F / 2°C 14°F / -10°C 41% 30.18 in
(1022 mb)
SSE 13.8 mph
(SSE 22 kph)
- 10SM
00:15
Overcast
34°F / 1°C 14°F / -10°C 44% 30.18 in
(1022 mb)
S 11.5 mph
(S 19 kph)
- 10SM
Time Weather Temperature Dewpoint Humidity Pressure Winds Precip Visibility


Weather for websites

WeatherForYou.com, LLC is not responsible for any damages or problems caused by this service. Current weather conditions are obtained from the closest station including government and personal stations which may have varying degrees of accuracy. Weather forecasts are derived from the NOAA NDFD. Like all things, this site belongs to Jesus Christ... He just trusts me to maintain it. If you have any questions or comments email webmaster@weatherforyou.com

Copyright © 2014, WeatherForYou.com LLC. All rights reserved.